Weather History for Sumter, SC

Change the Weather History Date:

Saturday, February 16, 2013

  Actual Average Record
Temperature  
Mean Temperature 38 °F -  
Max Temperature 44 °F 63 °F 66 °F (2011)
Min Temperature 32 °F 39 °F 30 °F (2011)
Degree Days  
Heating Degree Days 27    
Moisture  
Dew Point 36 °F    
Average Humidity 94    
Maximum Humidity 100    
Minimum Humidity 71    
Precipitation  
Precipitation 0.13 in - - ()
Sea Level Pressure  
Sea Level Pressure 29.94 in    
Wind  
Wind Speed 4 mph (NW)    
Max Wind Speed 17 mph    
Max Gust Speed 30 mph    
Visibility 9 miles    
Events Rain , Snow    
Averages and records for this station are not official NWS values.
T = Trace of Precipitation, MM = Missing Value Source: NWS Daily Summary

Daily Weather History Graph

Daily Weather History Graph

Search for Another Location

Airport:

Trip Planner

Search our weather history database for the weather conditions in past years. The results will help you decide how hot, cold, wet, or windy it might be!

Date:

Astronomy

Feb. 16, 2013 Rise Set
Actual Time 7:04 AM EST 6:06 PM EST
Civil Twilight 6:39 AM EST 6:32 PM EST
Nautical Twilight 6:10 AM EST 7:01 PM EST
Astronomical Twilight 5:41 AM EST 7:30 PM EST
Moon 10:36 AM EST (2/16) No Moon Set
Length of Visible Light 11h 52m
Length of Day
11h 01m
Waxing Crescent, 39% of the Moon is Illuminated
Feb 16
Waxing Crescent
Feb 17
First Quarter
Feb 25
Full
Mar 4
Last Quarter
Mar 11
New

Hourly Weather History & Observations

Time (EST) Temp. Windchill Dew Point Humidity Pressure Visibility Wind Dir Wind Speed Gust Speed Precip Events Conditions
12:15 AM 39.2 °F - 39.2 °F 100% 29.96 in 10.0 mi Calm Calm - N/A   Clear
12:35 AM 39.2 °F - 39.2 °F 100% 29.96 in 10.0 mi Calm Calm - N/A   Clear
12:55 AM 39.2 °F - 39.2 °F 100% 29.96 in 10.0 mi Calm Calm - N/A   Clear
1:15 AM 41.0 °F 37.1 °F 39.2 °F 93% 29.95 in 10.0 mi SW 5.8 mph - N/A   Clear
1:35 AM 41.0 °F 38.0 °F 39.2 °F 93% 29.96 in 10.0 mi NW 4.6 mph - N/A   Clear
1:55 AM 41.0 °F 39.0 °F 39.2 °F 93% 29.95 in 10.0 mi West 3.5 mph - N/A   Clear
2:15 AM 39.2 °F 37.0 °F 37.4 °F 93% 29.95 in 10.0 mi SW 3.5 mph - N/A   Clear
2:35 AM 39.2 °F - 37.4 °F 93% 29.95 in 10.0 mi Calm Calm - N/A   Clear
2:55 AM 37.4 °F - 37.4 °F 100% 29.96 in 10.0 mi Calm Calm - N/A   Clear
3:15 AM 35.6 °F - 35.6 °F 100% 29.95 in 9.0 mi Calm Calm - N/A   Clear
3:35 AM 37.4 °F - 37.4 °F 100% 29.94 in 10.0 mi Calm Calm - N/A   Clear
3:55 AM 35.6 °F - 35.6 °F 100% 29.93 in 10.0 mi Calm Calm - N/A   Clear
4:15 AM 35.6 °F - 35.6 °F 100% 29.92 in 10.0 mi Calm Calm - N/A   Clear
4:35 AM 35.6 °F - 35.6 °F 100% 29.93 in 10.0 mi Calm Calm - N/A   Clear
4:55 AM 35.6 °F - 35.6 °F 100% 29.93 in 9.0 mi Calm Calm - N/A   Clear
5:15 AM 35.6 °F - 35.6 °F 100% 29.91 in 8.0 mi Calm Calm - N/A   Clear
5:35 AM 33.8 °F - 33.8 °F 100% 29.92 in 10.0 mi Calm Calm - N/A   Clear
5:55 AM 37.4 °F 32.1 °F 35.6 °F 93% 29.93 in 10.0 mi NNW 6.9 mph - N/A   Clear
6:15 AM 37.4 °F 32.8 °F 35.6 °F 93% 29.93 in 10.0 mi North 5.8 mph - N/A   Clear
6:35 AM 39.2 °F 34.2 °F 35.6 °F 87% 29.93 in 10.0 mi North 6.9 mph - N/A   Clear
6:55 AM 39.2 °F 34.2 °F 35.6 °F 87% 29.93 in 10.0 mi North 6.9 mph - N/A   Clear
7:15 AM 39.2 °F 33.6 °F 35.6 °F 87% 29.94 in 10.0 mi North 8.1 mph - N/A   Clear
7:35 AM 39.2 °F 34.2 °F 33.8 °F 81% 29.94 in 10.0 mi North 6.9 mph - N/A   Clear
7:55 AM 39.2 °F 33.0 °F 33.8 °F 81% 29.93 in 10.0 mi North 9.2 mph - N/A   Clear
8:15 AM 39.2 °F 33.0 °F 35.6 °F 87% 29.93 in 10.0 mi NNE 9.2 mph - N/A   Clear
8:35 AM 41.0 °F 34.7 °F 35.6 °F 81% 29.93 in 10.0 mi North 10.4 mph - N/A   Clear
8:55 AM 44.6 °F 38.1 °F 35.6 °F 71% 29.93 in 10.0 mi North 13.8 mph - N/A   Scattered Clouds
9:15 AM 42.8 °F 37.5 °F 35.6 °F 76% 29.93 in 10.0 mi North 9.2 mph - N/A   Scattered Clouds
9:35 AM 44.6 °F 38.8 °F 35.6 °F 71% 29.92 in 10.0 mi NNE 11.5 mph - N/A   Mostly Cloudy
9:55 AM 44.6 °F 38.1 °F 35.6 °F 71% 29.93 in 10.0 mi NNE 13.8 mph 17.3 mph N/A   Mostly Cloudy
10:15 AM 44.6 °F 38.4 °F 35.6 °F 71% 29.94 in 10.0 mi North 12.7 mph - N/A   Mostly Cloudy
10:35 AM 39.2 °F 31.6 °F 37.4 °F 93% 29.95 in 7.0 mi NNW 12.7 mph 21.9 mph N/A Rain Light Rain
1:15 PM 35.6 °F 30.7 °F 35.6 °F 100% 29.93 in 6.0 mi NNW 5.8 mph - 0.01 in Rain Light Rain
1:35 PM 35.6 °F 31.7 °F 35.6 °F 100% 29.92 in 5.0 mi NNW 4.6 mph - 0.02 in Rain Light Rain
1:55 PM 35.6 °F 31.7 °F 35.6 °F 100% 29.92 in 6.0 mi WNW 4.6 mph - 0.03 in Rain Light Rain
2:15 PM 37.4 °F - 37.4 °F 100% 29.90 in 9.0 mi Calm Calm - N/A   Overcast
2:35 PM 37.4 °F 32.8 °F 37.4 °F 100% 29.86 in 10.0 mi SSE 5.8 mph - N/A   Mostly Cloudy
2:55 PM 37.4 °F - 37.4 °F 100% 29.87 in 10.0 mi Calm Calm - N/A   Overcast
3:15 PM 37.4 °F 32.8 °F 37.4 °F 100% 29.87 in 10.0 mi WNW 5.8 mph - N/A   Overcast
3:35 PM 39.2 °F 35.9 °F 37.4 °F 93% 29.87 in 10.0 mi NNW 4.6 mph - N/A   Overcast
3:55 PM 39.2 °F - 39.2 °F 100% 29.86 in 10.0 mi Calm Calm - N/A   Overcast
4:15 PM 41.0 °F 35.8 °F 37.4 °F 87% 29.86 in 10.0 mi WNW 8.1 mph - N/A   Overcast
4:35 PM 39.2 °F 35.0 °F 37.4 °F 93% 29.87 in 10.0 mi West 5.8 mph - N/A   Overcast
4:55 PM 41.0 °F 37.1 °F 37.4 °F 87% 29.87 in 10.0 mi WNW 5.8 mph - N/A   Overcast
5:15 PM 41.0 °F 37.1 °F 37.4 °F 87% 29.87 in 10.0 mi WNW 5.8 mph - N/A   Overcast
5:35 PM 39.2 °F 37.0 °F 37.4 °F 93% 29.86 in 6.0 mi NW 3.5 mph - N/A Rain Light Rain
5:55 PM 39.2 °F 34.2 °F 37.4 °F 93% 29.88 in 6.0 mi WNW 6.9 mph - 0.02 in Rain Light Rain
6:15 PM 37.4 °F 33.8 °F 35.6 °F 93% 29.87 in 9.0 mi NNW 4.6 mph - 0.01 in Rain Light Rain
6:35 PM 35.6 °F 29.9 °F 35.6 °F 100% 29.90 in 3.0 mi NW 6.9 mph 16.1 mph 0.04 in Snow Light Snow
6:55 PM 35.6 °F 29.2 °F 35.6 °F 100% 29.90 in - WNW 8.1 mph - 0.08 in Rain Light Rain
7:15 PM 35.6 °F 25.9 °F 35.6 °F 100% 29.90 in 10.0 mi WNW 16.1 mph 29.9 mph N/A Rain Light Rain
7:35 PM 35.6 °F 25.9 °F 33.8 °F 93% 29.93 in 8.0 mi NW 16.1 mph 25.3 mph N/A Rain Light Rain
7:55 PM 33.8 °F 23.2 °F 33.8 °F 100% 29.94 in 5.0 mi NW 17.3 mph 28.8 mph N/A Rain Light Rain
8:15 PM 33.8 °F 23.2 °F 33.8 °F 100% 29.96 in 3.0 mi NW 17.3 mph 25.3 mph N/A Snow Light Snow
8:35 PM 32.0 °F 22.5 °F 32.0 °F 100% 29.97 in 2.0 mi NW 12.7 mph 26.5 mph N/A Snow Light Snow
8:55 PM 32.0 °F 22.1 °F 32.0 °F 100% 29.98 in 3.0 mi North 13.8 mph 23.0 mph N/A Snow Light Snow
9:15 PM 32.0 °F 22.5 °F 32.0 °F 100% 29.99 in 5.0 mi North 12.7 mph 21.9 mph N/A Snow Light Snow
9:35 PM 32.0 °F 24.8 °F 32.0 °F 100% 30.00 in 10.0 mi North 8.1 mph - N/A   Mostly Cloudy
9:55 PM 32.0 °F 25.6 °F 32.0 °F 100% 30.02 in 10.0 mi NW 6.9 mph - N/A   Mostly Cloudy
10:15 PM 32.0 °F 26.4 °F 32.0 °F 100% 30.03 in 10.0 mi WNW 5.8 mph - N/A   Partly Cloudy
10:35 PM 32.0 °F 25.6 °F 32.0 °F 100% 30.03 in 10.0 mi West 6.9 mph - N/A   Partly Cloudy
10:55 PM 32.0 °F 25.6 °F 32.0 °F 100% 30.03 in 10.0 mi West 6.9 mph - N/A   Clear
11:15 PM 32.0 °F 25.6 °F 32.0 °F 100% 30.03 in 10.0 mi WNW 6.9 mph - N/A   Clear
11:35 PM 32.0 °F 26.4 °F 32.0 °F 100% 30.03 in 10.0 mi West 5.8 mph - N/A   Clear
11:55 PM 32.0 °F 26.4 °F 32.0 °F 100% 30.04 in 10.0 mi WNW 5.8 mph - N/A   Partly Cloudy